| time (UTC) | temp C | wind direction | speed KPH | gust KPH | rain 1hr cm | rain 24hr cm | rain mn cm | humidity % | barometer mb |
| 20260510060028 | 23 | 153 | 0.0 | 6.4 | 0.00 | 0.00 | 0.00 | 90 | 1009.4 |
| 20260510054526 | 23 | 168 | 0.0 | 6.4 | 0.00 | 0.00 | 0.00 | 91 | 1009.5 |
| 20260510053024 | 23 | 181 | 1.6 | 6.4 | 0.00 | 0.00 | 0.00 | 91 | 1009.5 |
| 20260510051522 | 24 | 138 | 1.6 | 6.4 | 0.00 | 0.00 | 0.00 | 90 | 1009.6 |
| 20260510050019 | 24 | 162 | 1.6 | 8.0 | 0.00 | 0.00 | 0.00 | 90 | 1009.9 |
| 20260510044524 | 24 | 103 | 1.6 | 12.9 | 0.00 | 0.00 | 0.00 | 90 | 1009.9 |
| 20260510043021 | 24 | 170 | 0.0 | 11.3 | 0.00 | 0.00 | 0.00 | 90 | 1010.2 |
| 20260510041519 | 25 | 155 | 0.0 | 3.2 | 0.00 | 0.00 | 0.00 | 90 | 1010.4 |
| 20260510040017 | 25 | 151 | 0.0 | 4.8 | 0.00 | 0.00 | 0.00 | 90 | 1010.5 |
| 20260510034517 | 25 | 122 | 0.0 | 6.4 | 0.00 | 0.00 | 0.00 | 90 | 1010.1 |
| 20260510033016 | 25 | 141 | 0.0 | 8.0 | 0.00 | 0.00 | 0.00 | 90 | 1009.8 |
| 20260510031522 | 25 | 164 | 0.0 | 6.4 | 0.00 | 0.00 | 0.00 | 90 | 1010.2 |
| 20260510030014 | 25 | 218 | 0.0 | 8.0 | 0.00 | 0.00 | 0.00 | 90 | 1010.0 |
| 20260510024513 | 25 | 121 | 0.0 | 4.8 | 0.00 | 0.00 | 0.00 | 89 | 1009.8 |
| 20260510023010 | 25 | 147 | 1.6 | 6.4 | 0.00 | 0.00 | 0.00 | 88 | 1009.4 |
| 20260510021513 | 25 | 171 | 1.6 | 8.0 | 0.00 | 0.00 | 0.00 | 87 | 1009.3 |
| 20260510020006 | 26 | 134 | 0.0 | 4.8 | 0.00 | 0.00 | 0.00 | 83 | 1008.6 |
| 20260510014507 | 26 | 132 | 1.6 | 6.4 | 0.00 | 0.00 | 0.00 | 79 | 1008.2 |
| 20260510013005 | 26 | 170 | 1.6 | 6.4 | 0.00 | 0.00 | 0.00 | 76 | 1007.9 |
| 20260510011506 | 26 | 173 | 1.6 | 4.8 | 0.00 | 0.00 | 0.00 | 74 | 1007.5 |
| 20260510010004 | 27 | 176 | 3.2 | 9.7 | 0.00 | 0.00 | 0.00 | 73 | 1006.8 |
| 20260510004503 | 27 | 162 | 0.0 | 8.0 | 0.00 | 0.00 | 0.00 | 69 | 1007.0 |
| 20260510003011 | 28 | 154 | 0.0 | 4.8 | 0.00 | 0.00 | 0.00 | 60 | 1006.9 |
| 20260510001502 | 28 | 151 | 1.6 | 8.0 | 0.00 | 0.00 | 0.00 | 63 | 1006.8 |
| 20260510000001 | 28 | 165 | 0.0 | 6.4 | 0.00 | 0.00 | 0.00 | 64 | 1006.5 |
| 20260509234643 | 29 | 151 | 0.0 | 8.0 | 0.00 | 0.00 | 0.00 | 64 | 1006.4 |
| 20260509233100 | 30 | 211 | 1.6 | 6.4 | 0.00 | 0.00 | 0.00 | 65 | 1006.3 |
| 20260509231600 | 30 | 144 | 1.6 | 6.4 | 0.00 | 0.00 | 0.00 | 68 | 1006.4 |
| 20260509230059 | 30 | 259 | 1.6 | 6.4 | 0.00 | 0.00 | 0.00 | 69 | 1006.4 |
| 20260509224559 | 30 | 136 | 1.6 | 6.4 | 0.00 | 0.00 | 0.00 | 71 | 1006.2 |
| 20260509223059 | 30 | 136 | 1.6 | 4.8 | 0.00 | 0.00 | 0.00 | 71 | 1006.2 |
| 20260509221558 | 30 | 153 | 3.2 | 8.0 | 0.00 | 0.00 | 0.00 | 70 | 1006.1 |
| 20260509220107 | 30 | 184 | 0.0 | 6.4 | 0.00 | 0.00 | 0.00 | 70 | 1006.0 |
| 20260509214556 | 31 | 117 | 0.0 | 6.4 | 0.00 | 0.00 | 0.00 | 70 | 1006.0 |
| 20260509213056 | 31 | 177 | 1.6 | 6.4 | 0.00 | 0.00 | 0.00 | 68 | 1005.9 |
| 20260509211557 | 31 | 162 | 0.0 | 4.8 | 0.00 | 0.00 | 0.00 | 66 | 1005.9 |
| 20260509210054 | 31 | 122 | 0.0 | 3.2 | 0.00 | 0.00 | 0.00 | 57 | 1006.0 |
| 20260509204553 | 31 | 117 | 0.0 | 4.8 | 0.00 | 0.00 | 0.00 | 62 | 1006.1 |
| 20260509203119 | 31 | 108 | 0.0 | 4.8 | 0.00 | 0.00 | 0.00 | 61 | 1006.2 |
| 20260509201559 | 31 | 160 | 0.0 | 1.6 | 0.00 | 0.00 | 0.00 | 59 | 1006.4 |
| 20260509200055 | 31 | 358 | 0.0 | 1.6 | 0.00 | 0.00 | 0.00 | 66 | 1006.7 |
| 20260509194546 | 32 | 199 | 0.0 | 6.4 | 0.00 | 0.00 | 0.00 | 61 | 1006.8 |
| 20260509193049 | 32 | 123 | 0.0 | 0.0 | 0.00 | 0.00 | 0.00 | 58 | 1006.8 |
| 20260509191554 | 32 | 170 | 0.0 | 3.2 | 0.00 | 0.00 | 0.00 | 61 | 1006.9 |
| 20260509190040 | 31 | 276 | 0.0 | 6.4 | 0.00 | 0.00 | 0.00 | 63 | 1007.0 |
| 20260509184537 | 31 | 161 | 1.6 | 4.8 | 0.00 | 0.03 | 0.00 | 59 | 1007.1 |
| 20260509183035 | 30 | 85 | 0.0 | 4.8 | 0.00 | 0.03 | 0.00 | 69 | 1007.4 |
| 20260509181537 | 30 | 288 | 0.0 | 3.2 | 0.00 | 0.03 | 0.00 | 70 | 1007.7 |
| 20260509180028 | 28 | 246 | 0.0 | 3.2 | 0.00 | 0.03 | 0.00 | 76 | 1008.0 |
| 20260509174524 | 27 | 276 | 0.0 | 3.2 | 0.00 | 0.03 | 0.00 | 79 | 1008.5 |
| 20260509173024 | 27 | 259 | 0.0 | 1.6 | 0.00 | 0.03 | 0.00 | 80 | 1008.6 |
| 20260509171523 | 27 | 42 | 0.0 | 6.4 | 0.00 | 0.03 | 0.00 | 80 | 1008.5 |
| 20260509170022 | 27 | 20 | 0.0 | 4.8 | 0.00 | 0.03 | 0.00 | 83 | 1008.7 |
| 20260509164521 | 27 | 110 | 0.0 | 3.2 | 0.00 | 0.03 | 0.00 | 84 | 1008.8 |
| 20260509163020 | 27 | 270 | 0.0 | 1.6 | 0.00 | 0.03 | 0.00 | 82 | 1008.7 |
| 20260509161520 | 27 | 158 | 0.0 | 0.0 | 0.00 | 0.03 | 0.00 | 83 | 1008.6 |
| 20260509160018 | 27 | 148 | 0.0 | 3.2 | 0.00 | 0.03 | 0.00 | 85 | 1008.5 |
| 20260509154519 | 26 | 74 | 0.0 | 3.2 | 0.00 | 0.03 | 0.00 | 87 | 1008.6 |
| 20260509153013 | 25 | 127 | 1.6 | 4.8 | 0.00 | 0.03 | 0.00 | 89 | 1008.1 |
| 20260509151507 | 25 | 174 | 0.0 | 0.0 | 0.00 | 0.03 | 0.00 | 91 | 1008.5 |
| 20260509150005 | 25 | 130 | 0.0 | 0.0 | 0.00 | 0.03 | 0.00 | 91 | 1008.3 |
| 20260509144505 | 25 | 145 | 0.0 | 1.6 | 0.00 | 0.03 | 0.00 | 92 | 1008.5 |
| 20260509143005 | 25 | 179 | 0.0 | 0.0 | 0.00 | 0.03 | 0.00 | 93 | 1008.7 |
| 20260509141504 | 24 | 26 | 0.0 | 0.0 | 0.00 | 0.03 | 0.00 | 95 | 1008.7 |
| 20260509140049 | 24 | 173 | 0.0 | 0.0 | 0.00 | 0.03 | 0.00 | 96 | 1008.5 |
| 20260509134547 | 24 | 265 | 0.0 | 0.0 | 0.00 | 0.03 | 0.00 | 96 | 1008.2 |
| 20260509133046 | 23 | 274 | 0.0 | 0.0 | 0.00 | 0.03 | 0.00 | 96 | 1008.6 |
| 20260509131549 | 23 | 132 | 0.0 | 0.0 | 0.00 | 0.03 | 0.00 | 96 | 1008.6 |
| 20260509130057 | 23 | 136 | 0.0 | 3.2 | 0.00 | 0.03 | 0.00 | 97 | 1008.3 |
| 20260509124545 | 23 | 187 | 0.0 | 0.0 | 0.00 | 0.03 | 0.00 | 96 | 1008.6 |
| 20260509123049 | 23 | 187 | 0.0 | 0.0 | 0.00 | 0.03 | 0.00 | 96 | 1008.6 |
| 20260509121542 | 23 | 186 | 0.0 | 0.0 | 0.00 | 0.03 | 0.00 | 96 | 1008.3 |
| 20260509120041 | 23 | 187 | 0.0 | 0.0 | 0.00 | 0.03 | 0.00 | 96 | 1008.5 |
| 20260509114544 | 23 | 186 | 0.0 | 0.0 | 0.00 | 0.03 | 0.00 | 96 | 1008.4 |
| 20260509113042 | 23 | 187 | 0.0 | 0.0 | 0.00 | 0.03 | 0.00 | 96 | 1008.4 |
| 20260509111540 | 23 | 187 | 0.0 | 0.0 | 0.00 | 0.03 | 0.00 | 96 | 1008.4 |
| 20260509110039 | 23 | 187 | 0.0 | 0.0 | 0.00 | 0.03 | 0.00 | 96 | 1007.9 |
| 20260509104540 | 23 | 187 | 0.0 | 0.0 | 0.00 | 0.03 | 0.00 | 96 | 1007.8 |
| 20260509103038 | 23 | 187 | 0.0 | 0.0 | 0.00 | 0.03 | 0.00 | 96 | 1007.9 |
| 20260509101540 | 23 | 186 | 0.0 | 0.0 | 0.00 | 0.03 | 0.00 | 96 | 1007.8 |
| 20260509100038 | 23 | 187 | 0.0 | 0.0 | 0.00 | 0.03 | 0.00 | 96 | 1007.8 |
| 20260509094537 | 23 | 187 | 0.0 | 0.0 | 0.00 | 0.03 | 0.00 | 96 | 1007.7 |
| 20260509093037 | 23 | 187 | 0.0 | 0.0 | 0.00 | 0.03 | 0.00 | 96 | 1007.6 |
| 20260509091536 | 23 | 187 | 0.0 | 0.0 | 0.00 | 0.03 | 0.00 | 96 | 1007.2 |
| 20260509090037 | 22 | 187 | 0.0 | 0.0 | 0.00 | 0.03 | 0.00 | 96 | 1007.3 |
| 20260509084538 | 22 | 187 | 0.0 | 0.0 | 0.00 | 0.03 | 0.00 | 96 | 1007.4 |
| 20260509083038 | 22 | 187 | 0.0 | 0.0 | 0.00 | 0.03 | 0.00 | 96 | 1007.5 |
| 20260509081536 | 22 | 187 | 0.0 | 0.0 | 0.00 | 0.03 | 0.00 | 96 | 1007.6 |
| 20260509080038 | 22 | 187 | 0.0 | 0.0 | 0.00 | 0.03 | 0.00 | 96 | 1007.7 |
| 20260509074531 | 22 | 187 | 0.0 | 0.0 | 0.00 | 0.03 | 0.00 | 95 | 1008.0 |
| 20260509073029 | 22 | 187 | 0.0 | 0.0 | 0.00 | 0.03 | 0.00 | 95 | 1008.1 |
| 20260509071528 | 22 | 187 | 0.0 | 0.0 | 0.00 | 0.03 | 0.00 | 95 | 1008.1 |
| 20260509070028 | 22 | 187 | 0.0 | 0.0 | 0.00 | 0.03 | 0.00 | 95 | 1008.0 |
| 20260509064528 | 22 | 187 | 0.0 | 0.0 | 0.00 | 0.03 | 0.00 | 95 | 1007.9 |
| 20260509063023 | 22 | 187 | 0.0 | 0.0 | 0.00 | 0.03 | 0.00 | 95 | 1008.1 |
| 20260509061523 | 22 | 187 | 0.0 | 0.0 | 0.00 | 0.03 | 0.00 | 95 | 1008.3 |